TimeCST,TemperatureF,Dew PointF,Humidity,Sea Level PressureIn,VisibilityMPH,Wind Direction,Wind SpeedMPH,Gust SpeedMPH,PrecipitationIn,Events,Conditions,WindDirDegrees,DateUTC
12:53 AM,61.0,59.0,93,29.98,8.0,SE,13.8,-,0.00,,Overcast,140,2013-02-10 06:53:00
1:53 AM,61.0,59.0,93,29.93,8.0,SE,13.8,-,N/A,,Overcast,140,2013-02-10 07:53:00
2:53 AM,62.1,60.1,93,29.90,8.0,SE,12.7,21.9,N/A,,Overcast,140,2013-02-10 08:53:00
3:53 AM,63.0,61.0,93,29.87,8.0,SE,13.8,-,N/A,,Overcast,140,2013-02-10 09:53:00
4:43 AM,62.6,60.8,94,29.85,8.0,SE,13.8,23.0,N/A,,Overcast,140,2013-02-10 10:43:00
4:53 AM,63.0,61.0,93,29.87,8.0,SE,13.8,-,N/A,,Overcast,140,2013-02-10 10:53:00
5:53 AM,64.0,62.1,93,29.86,8.0,SE,13.8,-,N/A,,Overcast,140,2013-02-10 11:53:00
7:53 AM,68.0,66.9,96,29.85,7.0,South,12.7,18.4,0.00,,Overcast,170,2013-02-10 13:53:00
8:53 AM,70.0,68.0,93,29.87,6.0,South,10.4,-,0.01,Rain,Light Rain,180,2013-02-10 14:53:00
9:00 AM,69.8,68.0,94,29.86,7.0,South,9.2,-,0.00,Rain,Light Rain,180,2013-02-10 15:00:00
9:11 AM,69.8,68.0,94,29.84,7.0,South,9.2,17.3,0.00,Rain-Thunderstorm,Light Rain,170,2013-02-10 15:11:00
9:32 AM,71.6,69.8,94,29.84,9.0,South,10.4,17.3,0.00,Rain,Light Rain,170,2013-02-10 15:32:00
9:53 AM,72.0,69.1,91,29.85,10.0,South,12.7,19.6,0.00,,Overcast,180,2013-02-10 15:53:00
10:13 AM,73.4,69.8,88,29.84,10.0,South,12.7,19.6,N/A,,Overcast,180,2013-02-10 16:13:00
10:26 AM,73.4,68.0,83,29.83,10.0,South,11.5,23.0,N/A,Thunderstorm,Overcast,180,2013-02-10 16:26:00
10:53 AM,72.0,68.0,87,29.83,7.0,South,13.8,25.3,0.07,Rain-Thunderstorm,Light Thunderstorms and Rain,180,2013-02-10 16:53:00
11:33 AM,71.6,68.0,88,29.81,10.0,South,16.1,21.9,0.00,Rain-Thunderstorm,Light Rain,180,2013-02-10 17:33:00
11:53 AM,71.1,66.9,87,29.89,10.0,West,17.3,25.3,0.00,Rain-Thunderstorm,Light Thunderstorms and Rain,280,2013-02-10 17:53:00
12:04 PM,62.6,60.8,94,29.88,2.0,WSW,16.1,46.0,0.47,Rain-Thunderstorm,Heavy Thunderstorms and Rain,240,2013-02-10 18:04:00
12:15 PM,64.4,62.6,94,29.86,2.0,WSW,17.3,23.0,0.70,Rain-Thunderstorm,Heavy Thunderstorms and Rain,240,2013-02-10 18:15:00
12:31 PM,64.4,62.6,94,29.86,2.0,SW,11.5,26.5,1.14,Rain-Thunderstorm,Heavy Thunderstorms and Rain,220,2013-02-10 18:31:00
12:53 PM,63.0,63.0,100,29.86,2.0,WSW,8.1,-,1.44,Rain-Thunderstorm,Heavy Thunderstorms and Rain,240,2013-02-10 18:53:00
1:01 PM,62.6,62.6,100,29.85,1.5,SSW,8.1,-,0.07,Rain-Thunderstorm,Heavy Thunderstorms and Rain,200,2013-02-10 19:01:00
1:07 PM,62.6,62.6,100,29.83,2.0,South,5.8,-,0.10,Rain-Thunderstorm,Heavy Thunderstorms and Rain,170,2013-02-10 19:07:00
1:17 PM,62.6,62.6,100,29.83,7.0,South,9.2,-,0.11,Rain-Thunderstorm,Light Rain,190,2013-02-10 19:17:00
1:29 PM,62.6,60.8,94,29.84,10.0,SW,8.1,-,0.11,Rain-Thunderstorm,Light Rain,220,2013-02-10 19:29:00
1:44 PM,62.6,62.6,100,29.83,10.0,West,8.1,-,0.11,Rain,Light Rain,260,2013-02-10 19:44:00
1:53 PM,63.0,62.1,97,29.85,10.0,WSW,11.5,-,0.11,Rain,Light Rain,250,2013-02-10 19:53:00
2:25 PM,64.4,62.6,94,29.84,10.0,WSW,4.6,-,0.00,,Overcast,250,2013-02-10 20:25:00
2:53 PM,64.0,62.1,93,29.85,10.0,WNW,5.8,-,0.00,,Overcast,290,2013-02-10 20:53:00
3:53 PM,64.0,61.0,90,29.89,10.0,West,3.5,-,N/A,,Overcast,280,2013-02-10 21:53:00
4:53 PM,64.9,61.0,87,29.87,10.0,Calm,Calm,-,0.00,,Overcast,0,2013-02-10 22:53:00
5:53 PM,64.0,62.1,93,29.90,10.0,Calm,Calm,-,N/A,,Mostly Cloudy,0,2013-02-10 23:53:00
6:53 PM,63.0,63.0,100,29.93,10.0,Calm,Calm,-,0.01,,Overcast,0,2013-02-11 00:53:00
7:53 PM,63.0,62.1,97,29.94,10.0,SSE,3.5,-,N/A,,Overcast,160,2013-02-11 01:53:00
8:53 PM,62.1,62.1,100,29.96,10.0,Calm,Calm,-,N/A,,Overcast,0,2013-02-11 02:53:00
9:53 PM,63.0,62.1,97,29.99,10.0,Calm,Calm,-,0.00,Rain,Light Rain,0,2013-02-11 03:53:00
10:53 PM,62.1,62.1,100,29.99,10.0,WNW,4.6,-,0.00,,Mostly Cloudy,300,2013-02-11 04:53:00
11:53 PM,62.1,62.1,100,29.98,10.0,ESE,3.5,-,N/A,,Mostly Cloudy,110,2013-02-11 05:53:00